Weather History for KFTW - November, 2012

Change the Weather History Date:

Thursday, November 8, 2012

  Actual Average Record
Temperature  
Mean Temperature 67 °F -  
Max Temperature 80 °F 64 °F 87 °F (2005)
Min Temperature 54 °F 47 °F 33 °F (2000)
Cooling Degree Days 2    
Growing Degree Days 17 (Base 50)    
Moisture  
Dew Point 51 °F    
Average Humidity 56    
Maximum Humidity 70    
Minimum Humidity 42    
Precipitation  
Precipitation 0.00 in - - ()
Sea Level Pressure  
Sea Level Pressure 30.00 in    
Wind  
Wind Speed 12 mph (SSE)    
Max Wind Speed 21 mph    
Max Gust Speed 30 mph    
Visibility 10 miles    
Events      
Averages and records for this station are not official NWS values.
T = Trace of Precipitation, MM = Missing Value Source: NWS Daily Summary

Daily Weather History Graph

Daily Weather History Graph

Search for Another Location

Airport or City:

Trip Planner

Search our weather history database for the weather conditions in past years. The results will help you decide how hot, cold, wet, or windy it might be!

Date:

Astronomy

Nov. 08, 2012 Rise Set
Actual Time 6:53 AM CST 5:32 PM CST
Civil Twilight 6:27 AM CST 5:58 PM CST
Nautical Twilight 5:58 AM CST 6:27 PM CST
Astronomical Twilight 5:29 AM CST 6:56 PM CST
Moon 1:08 AM CST (11/8) 1:57 PM CST (11/8)
Length of Visible Light 11h 30m
Length of Day
10h 38m
Waning Crescent, 32% of the Moon is Illuminated
Nov 8
Waning Crescent
Nov 13
New
Nov 20
First Quarter
Nov 28
Full
Dec 6
Last Quarter

Hourly Weather History & Observations

Time (CST) Temp. Heat Index Dew Point Humidity Pressure Visibility Wind Dir Wind Speed Gust Speed Precip Events Conditions
12:53 AM 54.0 °F - 41.0 °F 62% 30.05 in 10.0 mi SSE 6.9 mph - N/A   Clear
1:53 AM 55.0 °F - 41.0 °F 59% 30.05 in 10.0 mi SE 10.4 mph - N/A   Clear
2:53 AM 55.9 °F - 41.0 °F 57% 30.04 in 10.0 mi SE 11.5 mph - N/A   Clear
3:53 AM 54.0 °F - 41.0 °F 62% 30.04 in 10.0 mi SE 8.1 mph - N/A   Clear
4:53 AM 54.0 °F - 41.0 °F 62% 30.05 in 10.0 mi ESE 8.1 mph - N/A   Clear
5:53 AM 54.0 °F - 41.0 °F 62% 30.05 in 10.0 mi SE 8.1 mph - N/A   Clear
6:53 AM 54.0 °F - 43.0 °F 66% 30.06 in 10.0 mi SE 8.1 mph - N/A   Clear
7:53 AM 57.0 °F - 45.0 °F 64% 30.07 in 10.0 mi SSE 9.2 mph - N/A   Clear
8:53 AM 61.0 °F - 48.9 °F 64% 30.08 in 10.0 mi SSE 10.4 mph - N/A   Clear
9:53 AM 66.9 °F - 53.1 °F 61% 30.08 in 10.0 mi SSE 11.5 mph - N/A   Clear
10:53 AM 73.9 °F - 55.0 °F 52% 30.06 in 10.0 mi SSE 15.0 mph 20.7 mph N/A   Clear
11:53 AM 77.0 °F - 54.0 °F 45% 30.02 in 10.0 mi South 18.4 mph 24.2 mph N/A   Clear
12:53 PM 79.0 °F - 55.0 °F 44% 29.97 in 10.0 mi South 19.6 mph 28.8 mph N/A   Clear
1:53 PM 80.1 °F 80.2 °F 55.9 °F 43% 29.94 in 10.0 mi South 20.7 mph 29.9 mph N/A   Clear
2:53 PM 79.0 °F - 55.9 °F 45% 29.93 in 10.0 mi South 20.7 mph 26.5 mph N/A   Clear
3:53 PM 79.0 °F - 54.0 °F 42% 29.93 in 10.0 mi South 17.3 mph 27.6 mph N/A   Clear
4:53 PM 77.0 °F - 53.1 °F 43% 29.93 in 10.0 mi South 16.1 mph - N/A   Clear
5:53 PM 75.9 °F - 52.0 °F 43% 29.93 in 10.0 mi SSE 13.8 mph - N/A   Clear
6:53 PM 73.0 °F - 55.9 °F 55% 29.95 in 10.0 mi SSE 12.7 mph - N/A   Clear
7:53 PM 73.0 °F - 57.0 °F 57% 29.95 in 10.0 mi SSE 13.8 mph 24.2 mph N/A   Clear
8:53 PM 72.0 °F - 57.0 °F 59% 29.96 in 10.0 mi South 15.0 mph - N/A   Clear
9:53 PM 70.0 °F - 57.0 °F 63% 29.96 in 10.0 mi SSE 13.8 mph 20.7 mph N/A   Clear
10:53 PM 69.1 °F - 57.9 °F 68% 29.96 in 10.0 mi South 11.5 mph - N/A   Clear
11:53 PM 69.1 °F - 59.0 °F 70% 29.96 in 10.0 mi South 17.3 mph 25.3 mph N/A   Clear